Location: Unspecified
(0.0000°N, 0.0000°E)
Time: 15:39:25
(UTC+00:00)

Hubble Space Telescope - Pass Details

Date: 29 April 2017
Orbit: 538 x 541 km, 28.5° (Epoch: 21 May)

Event Time Altitude Azimuth Distance (km) Brightness Sun altitude
Rises 19:24:05 0° 296° (WNW) 2,675 5.8 -20.9°
Reaches altitude 10° 19:26:21 10° 294° (WNW) 1,786 4.6 -21.5°
Maximum altitude 19:30:28 70° 211° (SSW) 573 0.8 -22.5°
Enters shadow 19:30:40 68° 187° (S) 579 0.8 -22.5°
